Location: Kissing
(48.3027°N, 10.9775°E)
Time: 07:43:37
(UTC+00:00)

STARLINK-30 - Pass Details

Date: 07 June 2020
Orbit: 434 x 435 km, 53.0° (Epoch: 05 July)

Event Time Altitude Azimuth Distance (km) Brightness Sun altitude
Exits shadow 01:01:32 10° 142° (SE) 1,529 5.6 -15.0°
Drops below altitude 10° 01:02:57 10° 117° (ESE) 1,540 5.9 -14.9°
Enters shadow 01:59:10 -73° 242° (WSW) 12,623 10.4 -10.0°
Maximum altitude 02:38:38 59° 148° (SSE) 510 3.4 -5.6°
